Location: Chuathbaluk
(61.5726°N, 159.2454°W)
Time: 04:35:28
(UTC+00:00)

Transit 2A - Pass Details

Date: 28 November 2020
Orbit: 599 x 960 km, 66.7° (Epoch: 26 January)

Event Time Altitude Azimuth Distance (km) Brightness Sun altitude
Rises 04:19:07 0° 194° (SSW) 3,617 9.8 -18.0°
Reaches altitude 10° 04:21:54 10° 186° (S) 2,652 9.0 -18.3°
Maximum altitude 04:27:28 36° 122° (ESE) 1,402 7.0 -19.0°
Enters shadow 04:28:44 32° 97° (E) 1,479 6.9 -19.1°
Drops below altitude 10° 04:32:42 10° 59° (ENE) 2,495 - -19.6°
Sets 04:35:15 0° 51° (NE) 3,377 - -19.9°
